Back to catalog

SL-12 DEB

LostHEO
NORAD 28682·DEBRIS·🇷🇺 Russia

Launched Jul 30, 1992 from Baikonur Cosmodrome

Loading…

Next Passes (next 24 hours)

TLE

StaleSource: Space-Track

Epoch: Nov 2, 2005, 15:24 UTC

1 28682U 92047AF  05306.64205278 +.00000006 +00000-0 +10000-3 0  9996
2 28682 066.2984 056.5547 5347304 130.4374 289.0489 04.33551296011777

Track SL-12 DEB in real time with AllMySat

Download on the App Store